Voltar ao catálogo

STARLINK-38063

AtivoComunicaçõesSSO
NORAD 69979·PAYLOAD·🇺🇸 United States

Lançado Jul 11, 2026 de Vandenberg Space Force Base

Loading…

Próximas Passagens (próximas 24 horas)

TLE

AtualizadoSource: CelesTrak SupGP

Época: Sep 14, 2026, 21:00 UTC

1 69979C 26159E   26257.87548611 -.02602600  00000+0 -38600-1 0  2577
2 69979  97.2848  99.6488 0001824  87.7369  33.6000 15.56585394    13

Acompanhe STARLINK-38063 em tempo real com AllMySat

Download on the App Store